Concord, NH

5:52 PM EDT on August 16, 2017 (GMT -0400)
Concord Municipal

Weather History for KCON - December, 2013

Change the Weather History Date:

Tuesday, December 17, 2013

  Actual Average Record
Temperature  
Mean Temperature 0 °F 26 °F  
Max Temperature 13 °F 36 °F 59 °F (1928)
Min Temperature -13 °F 17 °F -22 °F (1951)
Degree Days  
Heating Degree Days 65 39  
Month to date heating degree days 718 608  
Since 1 July heating degree days 2235 2168  
Cooling Degree Days 0 0  
Month to date cooling degree days 0 0  
Year to date cooling degree days 537 452  
Moisture  
Dew Point 3 °F    
Average Humidity 70    
Maximum Humidity 84    
Minimum Humidity 55    
Precipitation  
Precipitation 0.33 in 0.10 in 1.57 in (2003)
Month to date precipitation 1.75 1.84  
Year to date precipitation 39.15 39.25  
Snow  
Snow 4.30 in 0.50 in 8.60 in (1970)
Month to date snowfall 17.2 7.2  
Since 1 July snowfall 17.4 9.8  
Snow Depth 9.00 in    
Sea Level Pressure  
Sea Level Pressure 30.15 in    
Wind  
Wind Speed 4 mph (NNW)    
Max Wind Speed 12 mph    
Max Gust Speed 14 mph    
Visibility 4 miles    
Events Fog , Snow    
T = Trace of Precipitation, MM = Missing Value Source: NWS Daily Summary

Daily Weather History Graph

Daily Weather History Graph

Search for Another Location

Airport or City:

Trip Planner

Search our weather history database for the weather conditions in past years. The results will help you decide how hot, cold, wet, or windy it might be!

Date:

Astronomy

Dec. 17, 2013 Rise Set
Actual Time 7:12 AM EST 4:12 PM EST
Civil Twilight 6:39 AM EST 4:44 PM EST
Nautical Twilight 6:03 AM EST 5:20 PM EST
Astronomical Twilight 5:29 AM EST 5:55 PM EST
Moon 4:51 PM EST (12/17) 7:04 AM EST (12/17)
Length of Visible Light 10h 04m
Length of Day
8h 59m
Full, 100% of the Moon is Illuminated
Dec 17
Full
Dec 25
Last Quarter
Jan 1
New
Jan 7
First Quarter
Jan 15
Full

Hourly Weather History & Observations

Time (EST) Temp. Windchill Dew Point Humidity Pressure Visibility Wind Dir Wind Speed Gust Speed Precip Events Conditions
1:51 AM 3.0 °F -10.5 °F -8.0 °F 60% 30.24 in 10.0 mi NW 8.1 mph - N/A   Clear
2:51 AM -0.0 °F - -8.0 °F 69% 30.26 in 10.0 mi Calm Calm - N/A   Clear
3:51 AM -4.0 °F -14.6 °F -9.9 °F 76% 30.26 in 10.0 mi WSW 4.6 mph - N/A   Clear
4:51 AM -7.1 °F - -11.0 °F 83% 30.26 in 10.0 mi Calm Calm - N/A   Clear
5:51 AM -8.0 °F -16.9 °F -13.0 °F 79% 30.27 in 10.0 mi NE 3.5 mph - N/A   Clear
6:51 AM -9.0 °F - -13.0 °F 83% 30.29 in 10.0 mi Calm Calm - N/A   Clear
7:51 AM -9.9 °F - -13.0 °F 86% 30.29 in 10.0 mi Calm Calm - N/A   Clear
8:51 AM -5.1 °F - -9.0 °F 83% 30.28 in 10.0 mi Calm Calm - N/A   Clear
9:51 AM 3.0 °F -4.4 °F -6.0 °F 66% 30.27 in 10.0 mi WNW 3.5 mph - N/A   Clear
10:51 AM 3.9 °F - -5.1 °F 66% 30.26 in 10.0 mi Calm Calm - N/A   Scattered Clouds
11:51 AM 8.1 °F 1.4 °F -5.1 °F 55% 30.24 in 10.0 mi WNW 3.5 mph - N/A   Overcast
12:20 PM 8.1 °F - -2.9 °F 61% 30.20 in 2.0 mi Calm Calm - 0.00 in Snow Light Snow
12:49 PM 10.4 °F - 1.4 °F 67% 30.18 in 1.8 mi Calm Calm - 0.00 in Snow Light Snow
12:51 PM 10.0 °F - 1.0 °F 67% 30.21 in 1.5 mi Calm Calm - 0.00 in Snow Light Snow
12:59 PM 9.0 °F 2.4 °F 1.0 °F 70% 30.18 in 1.0 mi WNW 3.5 mph - 0.00 in Snow Light Snow
1:44 PM 10.0 °F - 3.9 °F 76% 30.15 in 1.5 mi Calm Calm - 0.00 in Snow Light Snow
1:51 PM 10.9 °F - 5.0 °F 77% 30.17 in 1.2 mi Calm Calm - 0.00 in Snow Light Snow
2:03 PM 10.0 °F 3.6 °F 5.0 °F 80% 30.14 in 1.5 mi WNW 3.5 mph - 0.00 in Snow Light Snow
2:09 PM 10.9 °F 4.7 °F 5.0 °F 77% 30.14 in 1.2 mi WNW 3.5 mph - 0.01 in Snow Light Snow
2:21 PM 10.9 °F 4.7 °F 6.1 °F 81% 30.13 in 1.5 mi WNW 3.5 mph - 0.01 in Snow Light Snow
2:35 PM 10.9 °F - 6.1 °F 81% 30.13 in 2.0 mi Calm Calm - 0.01 in Snow Light Snow
2:51 PM 12.0 °F 4.1 °F 6.1 °F 77% 30.15 in 4.0 mi East 4.6 mph - 0.01 in Snow Light Snow
3:51 PM 12.9 °F 6.9 °F 6.1 °F 74% 30.14 in 1.8 mi NE 3.5 mph - 0.00 in Snow Light Snow
3:54 PM 12.9 °F 6.9 °F 6.1 °F 74% 30.10 in 1.2 mi NNE 3.5 mph - 0.00 in Snow Light Snow
4:05 PM 12.0 °F 5.9 °F 7.0 °F 80% 30.11 in 0.5 mi NNW 3.5 mph - 0.01 in Snow Snow
4:18 PM 12.0 °F 2.7 °F 8.1 °F 84% 30.10 in 0.5 mi North 5.8 mph - 0.02 in Fog , Snow Snow
4:51 PM 12.0 °F 2.7 °F 8.1 °F 84% 30.14 in 0.5 mi NNW 5.8 mph - 0.05 in Fog , Snow Snow
5:11 PM 12.0 °F 1.5 °F 8.1 °F 84% 30.10 in 0.5 mi North 6.9 mph - 0.03 in Fog , Snow Snow
5:24 PM 12.0 °F 4.1 °F 9.0 °F 88% 30.09 in 0.2 mi North 4.6 mph - 0.05 in Fog , Snow Heavy Snow
5:32 PM 12.0 °F 2.7 °F 8.1 °F 84% 30.10 in 0.5 mi NW 5.8 mph - 0.06 in Fog , Snow Snow
5:51 PM 12.0 °F 2.7 °F 8.1 °F 84% 30.14 in 0.5 mi WNW 5.8 mph - 0.08 in Fog , Snow Snow
6:30 PM 10.9 °F 0.2 °F 8.1 °F 88% 30.11 in 1.0 mi WNW 6.9 mph - 0.06 in Snow Light Snow
6:47 PM 12.2 °F 2.9 °F 8.6 °F 85% 30.10 in 0.5 mi North 5.8 mph - 0.07 in Fog , Snow Snow
6:51 PM 12.0 °F 2.7 °F 9.0 °F 88% 30.13 in 0.5 mi NNW 5.8 mph - 0.08 in Fog , Snow Snow
7:29 PM 12.0 °F 2.7 °F 9.0 °F 88% 30.10 in 0.5 mi NNW 5.8 mph - 0.04 in Fog , Snow Snow
7:36 PM 12.0 °F 4.1 °F 9.0 °F 88% 30.09 in 0.2 mi NNW 4.6 mph - 0.06 in Fog , Snow Heavy Snow
7:51 PM 12.0 °F 5.9 °F 9.0 °F 88% 30.12 in 1.0 mi North 3.5 mph - 0.07 in Snow Light Snow
8:08 PM 12.0 °F 5.9 °F 9.0 °F 88% 30.07 in 0.8 mi NNW 3.5 mph - 0.01 in Snow Light Snow
8:15 PM 12.0 °F 5.9 °F 9.0 °F 88% 30.07 in 1.2 mi NW 3.5 mph - 0.01 in Snow Light Snow
8:25 PM 12.0 °F 4.1 °F 9.0 °F 88% 30.06 in 1.5 mi North 4.6 mph - 0.01 in Snow Light Snow
8:32 PM 12.0 °F 1.5 °F 9.0 °F 88% 30.07 in 1.2 mi WNW 6.9 mph - 0.02 in Snow Light Snow
8:51 PM 12.0 °F -0.4 °F 9.0 °F 88% 30.09 in 1.2 mi NW 9.2 mph - 0.03 in Snow Light Snow
9:01 PM 12.0 °F -0.4 °F 9.0 °F 88% 30.05 in 1.5 mi NNW 9.2 mph - 0.00 in Snow Light Snow
9:24 PM 12.0 °F 1.5 °F 9.0 °F 88% 30.05 in 2.5 mi NNW 6.9 mph - 0.01 in Snow Light Snow
9:35 PM 12.0 °F -0.4 °F 9.0 °F 88% 30.05 in 3.0 mi NW 9.2 mph - 0.01 in Snow Light Snow
9:51 PM 12.0 °F -1.3 °F 9.0 °F 88% 30.07 in 5.0 mi NW 10.4 mph - 0.01 in Snow Light Snow
10:51 PM 12.0 °F 4.1 °F 9.0 °F 88% 30.06 in 10.0 mi NNW 4.6 mph - 0.00 in   Overcast
11:51 PM 12.9 °F 5.2 °F 9.0 °F 84% 30.02 in 10.0 mi NW 4.6 mph - N/A   Overcast